AO-07 1 07530U 74089B 18347.80856296 -.00000023 00000-0 13456-3 0 9998 2 07530 101.7160 312.6067 0012244 349.4481 69.2846 12.53635757 17102 UO-11 1 14781U 84021B 18347.47317242 .00000066 00000-0 14277-4 0 9996 2 14781 97.6304 15.8494 0007789 205.6625 154.4203 14.83050515871018 LO-19 1 20442U 90005G 18346.90301257 .00000007 00000-0 18646-4 0 9991 2 20442 098.6286 284.4292 0011557 348.7074 011.3849 14.32912446509428 HUBBLE 1 20580U 90037B 18347.20256291 .00000459 00000-0 17110-4 0 9996 2 20580 28.4708 11.6233 0002407 267.3567 155.6362 15.09143632372533 MET-2/21 1 22782U 93055A 18347.84008449 .00000050 00000-0 32025-4 0 9994 2 22782 82.5484 311.3476 0022012 346.3662 74.2178 13.83813825277025 AO-27 1 22825U 93061C 18347.82788986 .00000001 00000-0 18306-4 0 9990 2 22825 98.8848 327.3951 0008385 176.3000 183.8245 14.30046673315247 IO-26 1 22826U 93061D 18347.87302423 -.00000001 00000-0 17341-4 0 9993 2 22826 98.8789 327.4562 0009072 165.9492 194.1943 14.30379100315440 FO-29 1 24278U 96046B 18346.87968527 -.00000003 00000-0 32719-4 0 9992 2 24278 098.5136 161.0031 0350486 007.4182 353.1957 13.53088040102151 NOAA-15 1 25338U 98030A 18347.62150323 .00000015 00000-0 24909-4 0 9990 2 25338 98.7605 4.0947 0011430 68.7398 291.5001 14.25887248 70590 GO-32 1 25397U 98043D 18346.89848800 -.00000000 00000-0 19112-4 0 9996 2 25397 098.6692 284.5200 0000926 164.2671 195.8536 14.23656663060930 ISS 1 25544U 98067A 18347.85550926 .00143415 00000-0 21362-2 0 9997 2 25544 51.6368 203.3504 0005237 143.1573 49.7087 15.54099187146453 NO-44 1 26931U 01043C 18347.82833837 -.00000023 00000-0 22964-4 0 9997 2 26931 67.0504 125.8702 0005942 259.6294 100.4138 14.30526417898248 SO-50 1 27607U 02058C 18347.21407641 -.00000006 00000-0 20048-4 0 9990 2 27607 64.5553 262.7633 0079621 292.1443 67.1222 14.75504716859373 CO-55 1 27844U 03031E 18347.57883407 .00000043 00000-0 39157-4 0 9993 2 27844 98.6862 353.5825 0009307 207.3763 152.6925 14.22149383801695 CO-57 1 27848U 03031J 18347.72910825 .00000028 00000-0 32704-4 0 9993 2 27848 98.6943 354.1843 0009040 218.3612 141.6924 14.21748770801573 RS-22 1 27939U 03042A 18347.72060999 .00000114 00000-0 29054-4 0 9994 2 27939 98.0144 122.5077 0011693 302.6993 57.3089 14.66739476813135 NOAA-18 1 28654U 05018A 18347.61828929 -.00000000 00000-0 24928-4 0 9997 2 28654 99.1239 26.5298 0013959 347.3527 12.7292 14.12392160699118 CO-58 1 28895U 05043F 18347.39664825 .00000124 00000-0 32622-4 0 9996 2 28895 97.9320 131.8727 0016034 219.7100 140.2930 14.63611124700080 Falconsat-3 1 30776U 07006E 18347.79067813 .00001908 00000-0 55801-4 0 9991 2 30776 35.4341 202.7185 0003637 234.6891 125.3496 15.35331025651934 CO-65 1 32785U 08021C 18347.16997561 .00000198 00000-0 26994-4 0 9995 2 32785 97.5462 350.7964 0013577 158.9069 201.2711 14.88219708575790 AAUSAT2 1 32788U 08021F 18347.73127237 .00000686 00000-0 68376-4 0 9998 2 32788 97.5086 6.6422 0013347 105.7421 254.5273 14.94540193576997 DO-64 1 32789U 08021G 18347.73801681 .00000912 00000-0 65741-4 0 9996 2 32789 97.4909 37.8243 0013381 50.5342 309.7067 15.06519903578811 CO-66 1 32791U 08021J 18347.23295205 .00000329 00000-0 38896-4 0 9996 2 32791 97.5305 356.5755 0014417 137.7634 222.4698 14.90691636576182 RS-30 1 32953U 08025A 18347.76060645 .00000020 00000-0 75656-4 0 9999 2 32953 82.5042 260.9903 0018654 174.9825 185.1443 12.43086852479087 PRISM 1 33493U 09002B 18347.71729049 .00001325 00000-0 12212-3 0 9997 2 33493 98.1215 256.5915 0016529 81.6897 278.6200 14.96446957537190 NOAA-19 1 33591U 09005A 18347.59130984 .00000061 00000-0 58367-4 0 9997 2 33591 99.1631 329.3630 0013867 179.4882 180.6305 14.12322887507498 TISAT-1 1 36799U 10035E 18347.38161158 .00000206 00000-0 27019-4 0 9990 2 36799 98.1300 128.6512 0011839 346.5177 13.5722 14.90955307456858 JUGNU 1 37839U 11058B 18347.19188880 .00000283 00000-0 93590-5 0 9995 2 37839 19.9623 31.7867 0019550 59.3133 340.9082 14.12636449370712 SRMSAT 1 37841U 11058D 18347.47604955 .00000290 00000-0 14099-4 0 9999 2 37841 19.9726 82.9611 0011829 300.9909 144.6182 14.10620657370229 AO-71 1 37854U 11061E 18347.43021312 .00001215 00000-0 70506-4 0 9996 2 37854 101.7119 144.3041 0162160 261.6939 96.5858 15.05942425388803 HRBE 1 37855U 11061F 18347.01238639 .00001006 00000-0 58936-4 0 9994 2 37855 101.7241 141.1244 0174956 272.7813 85.3386 15.04932346388543 ALMASAT-1 1 38078U 12006B 18347.80166154 .00037455 42365-5 26806-3 0 9993 2 38078 69.4322 76.0808 0204979 192.9682 307.9548 15.50900830368409 HORYU-2 1 38340U 12025D 18347.63433544 .00000173 00000-0 33371-4 0 9995 2 38340 98.3516 15.3821 0011512 6.2967 353.8383 14.75641083353577 RS-40 1 38735U 12041C 18347.74768176 -.00000001 00000-0 -76583-4 0 9999 2 38735 82.4756 344.6593 0016095 285.0547 74.8749 12.42577110289330 BEESAT-3 1 39135U 13015F 18346.95746533 .00000881 00000-0 54135-4 0 9994 2 39135 064.8692 284.1340 0010745 261.6109 098.3799 15.17069196311377 BEESAT-2 1 39136U 13015G 18346.92516807 .00000769 00000-0 49218-4 0 9992 2 39136 064.8703 287.5155 0009530 252.7427 107.2656 15.16520969311300 ZACUBE-1 1 39417U 13066B 18347.02230229 .00000200 00000-0 31706-4 0 9996 2 39417 97.5734 5.9769 0057599 289.7073 69.7933 14.81024925273261 TRITON-1 1 39427U 13066M 18347.73604925 .00000205 00000-0 40466-4 0 9991 2 39427 97.6566 331.9148 0114986 44.6852 316.3550 14.67754678270910 GOMX-1 1 39430U 13066Q 18347.90301740 .00000178 00000-0 40800-4 0 9994 2 39430 97.7208 312.0565 0152325 123.0561 238.5380 14.59165197269365 LO-74 1 39440U 13066AA 18347.01018482 .00000209 00000-0 36241-4 0 9994 2 39440 97.5988 351.5968 0079753 335.6722 24.0731 14.75765185272292 AO-73 1 39444U 13066AE 18347.73300986 .00000223 00000-0 33997-4 0 9991 2 39444 97.5732 8.3940 0056700 281.8350 77.6509 14.81826599272242 SPROUT 1 39770U 14029E 18347.79226534 .00000757 00000-0 90402-4 0 9991 2 39770 97.8833 87.4345 0008708 348.6476 11.4564 14.87097277247059 DUCHIFAT-1 1 40021U 14033M 18347.45090460 .00000464 00000-0 53463-4 0 9998 2 40021 97.9190 266.4961 0012000 312.5841 47.4363 14.90469604243655 NANOSATCBR1 1 40024U 14033Q 18347.78347600 .00000388 00000-0 46501-4 0 9998 2 40024 97.9107 264.6962 0011326 314.7013 45.3281 14.89708750243610 EO-79 1 40025U 14033R 18347.19657135 .00000278 00000-0 35661-4 0 9994 2 40025 97.9048 262.1932 0011657 321.9428 38.0964 14.88830429243426 DTUSAT-2 1 40030U 14033W 18347.74699263 .00000230 00000-0 30806-4 0 9993 2 40030 97.8983 261.1935 0010967 315.2873 44.7459 14.88431358243447 EO-80 1 40032U 14033Y 18347.74510061 .00000227 00000-0 30509-4 0 9999 2 40032 97.8990 261.1933 0010912 315.8902 44.1443 14.88370943243432 ANTELSAT 1 40034U 14033AA 18347.28551124 .00000219 00000-0 40077-4 0 9997 2 40034 97.7844 217.1110 0058496 342.2550 17.6615 14.74015445241062 VELOX-1 1 40057U 14034E 18347.77548701 .00000333 00000-0 54167-4 0 9996 2 40057 98.2187 102.0992 0012222 110.8196 249.4325 14.77548255240161 DAURIA DX 1 1 40071U 14037C 18347.84252500 .00000126 00000-0 23689-4 0 9997 2 40071 98.4000 127.5087 0009907 103.2366 256.9958 14.81217090239596 UKUBE-1 1 40074U 14037F 18347.85850660 .00000291 00000-0 42222-4 0 9999 2 40074 98.4100 134.4937 0005531 93.7011 266.4833 14.83930697239944 HODOYOSHI-1 1 40299U 14070B 18347.82546609 .00000661 00000-0 30918-4 0 9997 2 40299 97.3663 66.3299 0012380 348.2965 128.3351 15.23138388227822 CHUBUSAT-1 1 40300U 14070C 18347.81282751 .00000768 00000-0 36694-4 0 9999 2 40300 97.3482 61.5438 0020432 356.4798 126.1123 15.21831952227590 QSAT-EOS 1 40301U 14070D 18347.78548160 .00001670 00000-0 68557-4 0 9991 2 40301 97.3460 63.5952 0025643 343.0953 165.9134 15.25331798227796 FIREBIRD FU3 1 40377U 15003B 18346.86951180 .00002729 00000-0 11253-3 0 9995 2 40377 099.0901 284.0836 0129367 356.5454 003.4868 15.17957822213419 FIREBIRD FU4 1 40378U 15003C 18347.78025090 .00002720 00000-0 11208-3 0 9991 2 40378 99.0904 285.2433 0129542 353.4084 6.5435 15.17969361213560 GRIFEX 1 40379U 15003D 18347.77271152 .00001901 00000-0 85457-4 0 9991 2 40379 99.0897 280.4257 0137244 8.7568 351.6006 15.14871924213289 NO-84 1 40654U 15025D 18347.46281378 .00007747 00000-0 12038-3 0 04845 2 40654 054.9916 304.6234 0146938 205.0843 154.3001 15.43740403083501 NO-83 1 40655U 15025E 18347.28685421 .00021216 00000-0 17761-3 0 05704 2 40655 054.9712 224.9284 0082356 252.7694 106.4235 15.65580074084251 DEORBITSAIL 1 40719U 15032E 18347.43139595 .00000373 00000-0 60696-4 0 9998 2 40719 97.9264 237.8364 0016003 185.8669 174.2356 14.76588512184622 NUDT-PHONESAT 1 40900U 15049B 18347.71597863 .00002175 00000-0 98018-4 0 9996 2 40900 97.4396 353.9766 0014853 117.3087 351.9685 15.22035283179218 XW-2A 1 40903U 15049E 18347.76254506 .00001818 00000-0 45768-4 0 9995 2 40903 97.3633 24.2632 0015658 99.9839 10.4265 15.41159500181458 XW-2C 1 40906U 15049H 18347.74527435 .00000686 00000-0 39672-4 0 9999 2 40906 97.4636 348.0141 0016441 123.8334 290.4752 15.15430180178684 XW-2D 1 40907U 15049J 18347.81550191 .00000741 00000-0 42379-4 0 9993 2 40907 97.4604 347.7641 0015695 120.9026 318.7893 15.15599286178703 LILACSAT-2 1 40908U 15049K 18347.78972514 .00000240 00000-0 16919-4 0 9992 2 40908 97.4731 346.8583 0017536 125.2526 359.4928 15.13655003178539 XW-2E 1 40909U 15049L 18347.90589623 .00000968 00000-0 51686-4 0 9999 2 40909 97.4573 350.2355 0015364 118.1603 307.9746 15.17392567178863 XW-2F 1 40910U 15049M 18347.82206409 .00001139 00000-0 61027-4 0 9991 2 40910 97.4596 349.4124 0016669 116.8599 7.2974 15.16909723178682 XW-2B 1 40911U 15049N 18347.90359528 .00000469 00000-0 28144-4 0 9990 2 40911 97.4637 348.4493 0015697 121.5912 304.8172 15.15535207178619 DCBB 1 40912U 15049P 18347.78106481 .00001281 00000-0 63969-4 0 9992 2 40912 97.4501 352.6211 0016939 103.5059 251.6631 15.19173479178923 TW-1C 1 40926U 15051B 18347.88718927 .00009321 00000-0 15610-3 0 9997 2 40926 97.1627 29.5275 0008831 355.9484 123.6264 15.52034019181153 TW-1A 1 40928U 15051D 18347.77726788 .00003103 00000-0 80512-4 0 9997 2 40928 97.1671 18.1284 0012817 38.0735 86.8983 15.39659740180409 IO-86 1 40931U 15052B 18346.30775815 .00000742 00000-0 14194-4 0 9994 2 40931 6.0029 319.9472 0013927 8.7596 351.3157 14.76593299173379 LQSat 1 40958U 15057A 18347.83388030 .00000027 00000-0 11884-4 0 9995 2 40958 97.9231 56.8481 0019370 118.6283 241.6864 14.73060024171298 AO-85 1 40967U 15058D 18347.37079128 .00000311 00000-0 49312-4 0 05359 2 40967 064.7778 007.2167 0213584 259.8754 097.8154 14.75838968080093 ATHENOXAT-1 1 41168U 15077C 18347.79770095 .00001856 00000-0 64035-4 0 9999 2 41168 14.9925 145.3020 0011115 21.9388 8.9770 15.13197508165628 ChubuSat-2 1 41338U 16012B 18347.78157204 .00000315 00000-0 17877-4 0 9999 2 41338 31.0028 252.5310 0013654 51.8551 308.3313 15.00068255154820 ChubuSat-3 1 41339U 16012C 18347.19810793 .00000354 00000-0 20874-4 0 9998 2 41339 31.0108 254.5822 0013435 52.8241 75.2214 15.00249380154723 Horyu-4 1 41340U 16012D 18346.93270313 .00000466 00000-0 28813-4 0 9994 2 41340 031.0047 249.4234 0013846 066.3924 293.8164 15.01127041154778 OUFTI-1 1 41458U 16025C 18347.75770260 .00001931 00000-0 10360-3 0 9990 2 41458 98.1168 60.0712 0167104 265.0766 93.1372 15.05210445144454 e-st@r-II 1 41459U 16025D 18347.86562108 .00001618 00000-0 88164-4 0 9993 2 41459 98.1190 59.9502 0167771 265.6403 92.5602 15.04907586144444 AAUSAT4 1 41460U 16025E 18347.79358449 .00002240 00000-0 11829-3 0 9993 2 41460 98.1130 60.6940 0158540 260.4166 97.9107 15.06549747144529 LO-87 1 41557U 16033B 18347.88558068 .00001118 00000-0 45306-4 0 9999 2 41557 97.4294 71.4575 0012744 233.6490 126.3573 15.26723036141584 NuSat2 1 41558U 16033C 18347.82442803 .00001223 00000-0 46616-4 0 9995 2 41558 97.4314 71.8483 0011745 236.6658 123.3457 15.28607049141584 Lapan A3 1 41603U 16040E 18347.78380744 .00000097 00000-0 77390-5 0 9996 2 41603 97.3893 45.8077 0012895 340.9242 151.8013 15.19643352137352 Swayam 1 41607U 16040J 18347.41656448 .00001295 00000-0 58391-4 0 9997 2 41607 97.3922 47.7433 0012776 335.9614 24.1025 15.22754457137371 Pratham 1 41783U 16059A 18347.12991021 .00000062 00000-0 21371-4 0 9998 2 41783 98.0956 45.5810 0032377 252.8778 106.8877 14.62961042118121 AlSat 1N 1 41789U 16059G 18347.68798520 .00000096 00000-0 27306-4 0 9995 2 41789 98.0978 47.7248 0027103 241.3535 118.4942 14.64201881118284 ScatSat 1 41790U 16059H 18347.34506007 .00000004 00000-0 12086-4 0 9995 2 41790 98.2370 31.6610 0017004 261.4457 98.4811 14.50883459117164 TY-1 1 41844U 16066D 18347.84532701 .00001580 00000-0 68423-4 0 9994 2 41844 97.4058 352.4895 0016803 121.8059 0.4028 15.23778919116235 Pegasus-1 1 41846U 16066F 18347.64387595 .00000257 00000-0 48555-4 0 9997 2 41846 98.7362 19.6298 0368842 74.2572 289.8967 14.37458042109684 CAS-2T 1 41847U 16066G 18347.71110690 .00000051 00000-0 17486-4 0 9997 2 41847 98.7316 20.2029 0367069 71.0878 292.9722 14.37943807110121 TO-89 1 41932U 98067KU 18347.69939937 .00234193 35559-4 35131-3 0 9996 2 41932 51.6225 123.2326 0004125 287.1163 72.9397 16.04215711109242 EO-88 1 42017U 17008BX 18347.85288352 .00001284 00000-0 54381-4 0 9994 2 42017 97.4280 51.6868 0007941 105.2188 254.9928 15.24975916101444 HAVELSAT 1 42700U 98067LH 18347.73799445 .00077941 00000-0 28802-3 0 9995 2 42700 51.6253 147.7852 0004357 233.1340 126.9266 15.87458602 90362 SOMP2 1 42701U 98067LJ 18347.72359442 .00053299 00000-0 23148-3 0 9992 2 42701 51.6317 151.5499 0004284 214.7445 145.3279 15.84271361 90309 PHOENIX 1 42706U 98067LP 18347.73203956 .00032685 00000-0 18399-3 0 9994 2 42706 51.6277 155.3892 0002027 171.9651 188.1383 15.78894843 90179 X-CubeSat 1 42707U 98067LQ 18347.68006687 .00101389 14963-4 31893-3 0 9990 2 42707 51.6248 145.7797 0003263 233.6549 126.4157 15.91302756 90288 qbee 1 42708U 98067LR 18347.76439539 .00074569 00000-0 28069-3 0 9999 2 42708 51.6257 148.7346 0002797 226.9685 133.1085 15.87107514 90217 ZA-AeroSat 1 42713U 98067LU 18347.73788976 .00033704 00000-0 20327-3 0 9999 2 42713 51.6343 159.9581 0003065 163.8153 196.2946 15.77329323 89770 SpaceCube 1 42717U 98067LY 18347.68263458 .00071474 00000-0 27335-3 0 9992 2 42717 51.6212 149.5942 0003911 229.7400 130.3263 15.86794053 89274 Hoopoe 1 42718U 98067LZ 18347.72028219 .00630794 22152-3 63503-3 0 9990 2 42718 51.6208 137.4231 0006418 300.8120 157.7871 16.10377061 89432 NJUST-1 1 42722U 98067MB 18347.77732263 .00033139 00000-0 21929-3 0 9992 2 42722 51.6347 163.0671 0005902 185.8748 270.4339 15.75204788 88805 LO-90 1 42725U 98067ME 18347.84764664 .00067427 00000-0 31564-3 0 9996 2 42725 51.6330 154.4901 0004703 197.5621 244.3557 15.82583333 88837 nSIGHT1 1 42726U 98067MF 18347.76321867 .00006342 00000-0 68382-4 0 9990 2 42726 51.6369 179.8829 0005386 178.6042 181.4969 15.65144226 88490 SNUSAT 1B 1 42727U 98067MG 18347.72949697 .00047605 00000-0 22835-3 0 9993 2 42727 51.6297 155.2828 0005195 182.3118 177.7861 15.82200494 88771 QBITO 1 42728U 98067MH 18347.68957676 .00079375 00000-0 27694-3 0 9992 2 42728 51.6301 149.1047 0003858 229.4306 130.6364 15.88614321 88690 Aalto-2 1 42729U 98067MJ 18347.71349918 .00092468 14277-4 30408-3 0 9991 2 42729 51.6242 147.5891 0003904 236.1089 123.9546 15.90495235 88724 SUSat 1 42730U 98067MK 18347.73518092 .00051920 00000-0 23307-3 0 9999 2 42730 51.6310 153.1187 0003568 212.8461 147.2321 15.83587884 88649 PolyITAN-2-SAU 1 42732U 98067MM 18347.65895949 .00098798 14741-4 31864-3 0 9993 2 42732 51.6269 147.2205 0003775 203.7170 156.3663 15.90830720 88766 Aoxiang-1 1 42735U 98067MQ 18347.75261755 .00035683 00000-0 22774-3 0 9992 2 42735 51.6307 162.0618 0005540 189.1513 285.4226 15.75999898 89940 BeEagleSat 1 42736U 98067MR 18347.76912330 .00041082 00000-0 21912-3 0 9999 2 42736 51.6299 157.1069 0005546 196.4463 163.6360 15.79957455 88703 CAS-4B 1 42759U 17034B 18347.74194880 .00000244 00000-0 28541-4 0 9990 2 42759 43.0159 177.4379 0009395 158.5423 305.3061 15.09441854 82585 CAS-4A 1 42761U 17034D 18347.78422652 .00000124 00000-0 21140-4 0 9993 2 42761 43.0171 176.8658 0009952 161.3765 321.3359 15.09517342 82589 UCLSat 1 42765U 17036A 18346.89696935 .00001164 00000-0 53489-4 0 9993 2 42765 97.3788 43.6797 0012162 162.3483 197.8178 15.22285013 81899 NIUSat 1 42766U 17036B 18347.39213846 .00000898 00000-0 43780-4 0 9992 2 42766 97.3787 43.0388 0016652 151.9208 208.2929 15.20745079 81764 LituanicaSAT 2 1 42768U 17036D 18347.78440053 .00001679 00000-0 76202-4 0 9992 2 42768 97.3810 44.1037 0016352 151.7872 208.4254 15.22067777 81877 Aalto 1 1 42775U 17036L 18346.72706944 .00000681 00000-0 33706-4 0 9991 2 42775 97.3778 42.6674 0014895 153.6432 206.5564 15.21030991 81635 URSA MAIOR 1 42776U 17036M 18346.96589585 .00000778 00000-0 37961-4 0 9992 2 42776 97.3785 42.9939 0014728 152.8835 207.3173 15.21142440 81676 Max Valier Sat 1 42778U 17036P 18347.65991242 .00000850 00000-0 40574-4 0 9993 2 42778 97.3816 44.1983 0013301 154.5152 205.6742 15.21662308 81799 Pegasus 1 42784U 17036V 18347.74685919 .00000965 00000-0 45130-4 0 9991 2 42784 97.3791 44.3923 0012796 159.9559 200.2183 15.22069859 81828 NUDATSat 1 42787U 17036Y 18347.84968856 .00001475 00000-0 65946-4 0 9993 2 42787 97.3825 44.8992 0010706 157.8343 202.3359 15.22826831 81703 SUCHAI 1 1 42788U 17036Z 18347.73417085 .00001155 00000-0 52907-4 0 9993 2 42788 97.3793 44.5644 0012409 159.4132 200.7607 15.22408773 81906 SKCUBE 1 42789U 17036AA 18346.88529250 .00001160 00000-0 53256-4 0 9991 2 42789 097.3792 043.7058 0012169 162.1989 197.9677 15.22338869081698 VZLUSAT 1 1 42790U 17036AB 18346.91727883 .00001591 00000-0 70897-4 0 9997 2 42790 097.3800 043.9851 0011817 161.7042 198.4622 15.22838135081717 VENTA 1 1 42791U 17036AC 18346.66504228 .00001136 00000-0 52180-4 0 9996 2 42791 097.3791 043.5378 0011777 163.2496 196.9132 15.22366459081659 Robusta 1B 1 42792U 17036AD 18346.90180616 .00001157 00000-0 52854-4 0 9996 2 42792 097.3791 043.8234 0011743 162.7063 197.4576 15.22497148081716 D-SAT 1 42794U 17036AF 18347.10407361 .00000216 00000-0 24083-4 0 9998 2 42794 97.5679 34.7685 0127898 47.1789 314.0095 14.90985061 80389 BIRD-J 1 42820U 98067MU 18347.77132804 .00038697 00000-0 21954-3 0 9998 2 42820 51.6313 160.9065 0003001 168.3666 191.7405 15.78632305 82113 BIRD-G 1 42821U 98067MV 18347.79475909 .00033507 00000-0 20352-3 0 9993 2 42821 51.6268 162.5668 0002908 161.3483 198.7624 15.77171982 82078 BIRD-M 1 42822U 98067MW 18347.79006138 .00037033 00000-0 21683-3 0 9994 2 42822 51.6320 161.8029 0003372 171.0637 189.0424 15.77946838 82088 BIRD-B 1 42823U 98067MX 18347.76507519 .00037855 00000-0 21826-3 0 9992 2 42823 51.6296 161.6491 0004968 165.8035 194.3106 15.78273059 82082 BIRD-N 1 42824U 98067MY 18347.50970815 .00036389 00000-0 21516-3 0 9995 2 42824 51.6331 163.7365 0005204 171.0751 189.0343 15.77725760 82022 TechnoSat 1 42829U 17042E 18347.83467216 .00000058 00000-0 11293-4 0 9992 2 42829 97.5817 243.2451 0013423 327.5523 32.4869 14.90899341 77098 TOMSK-TPU 120 1 42910U 98067MZ 18347.90748478 .00022215 00000-0 17869-3 0 9992 2 42910 51.6345 172.0876 0006786 166.6792 334.8439 15.70845692 75561 TANYUSHA 1 1 42911U 98067NA 18347.76227992 .00031540 00000-0 22531-3 0 9993 2 42911 51.6332 169.7386 0006017 166.2845 289.3310 15.73452188 75568 TANYUSHA 2 1 42912U 98067NB 18347.73021896 .00027597 00000-0 20855-3 0 9990 2 42912 51.6372 171.8352 0005901 173.6652 272.3386 15.72202604 75558 TNS 0-2 1 42914U 98067ND 18347.88393480 .00019464 00000-0 15777-3 0 9990 2 42914 51.6328 173.0480 0005151 170.0162 190.0939 15.70769979 75541 QIKCOM-1 1 42983U 98067NF 18347.81154314 .00002271 00000-0 37003-4 0 9995 2 42983 51.6379 197.4774 0004649 142.2708 217.8610 15.57474158 64209 AO-91 1 43017U 17073E 18346.78466940 .00000745 00000-0 63169-4 0 9994 2 43017 97.7175 270.5579 0260173 50.4117 311.9758 14.78300988 57492 EcAMSat 1 43019U 98067NG 18347.81975996 .00003896 00000-0 55562-4 0 9997 2 43019 51.6388 195.3023 0005531 123.3086 236.8437 15.58980643146553 PICSAT 1 43132U 18004X 18346.83513613 .00001180 00000-0 53062-4 0 9998 2 43132 97.5134 49.8247 0009725 184.1511 175.9646 15.23090692 50901 AO-92 1 43137U 18004AC 18347.41113359 .00000931 00000-0 42535-4 0 9997 2 43137 97.5127 50.4203 0009271 183.4655 176.6519 15.23078890 50986 TianYi 2 1 43155U 18008A 18347.80317606 .00000865 00000-0 55730-4 0 9992 2 43155 97.5095 59.0955 0016346 245.0200 253.3612 15.10842976 49605 Zhou Enlai 1 43156U 18008B 18347.85392042 .00000528 00000-0 36072-4 0 9999 2 43156 97.5128 59.0718 0013466 242.0863 255.4057 15.10324045 49598 TianYi 6 1 43158U 18008D 18347.84715132 .00000248 00000-0 19169-4 0 9996 2 43158 97.5062 58.7492 0012805 239.4358 229.4525 15.09982995 49567 S-Net G 1 43186U 18014G 18347.81916480 .00000550 00000-0 53418-4 0 9991 2 43186 97.7172 253.8793 0009564 270.9495 89.0631 14.96547777 47188 S-Net H 1 43187U 18014H 18347.81898980 .00000526 00000-0 51292-4 0 9997 2 43187 97.7170 253.8722 0009557 270.9925 89.0201 14.96547828 47189 S-Net J 1 43188U 18014J 18347.81882206 .00000530 00000-0 51650-4 0 9995 2 43188 97.7172 253.8824 0009560 270.9894 89.0232 14.96548872 47188 S-Net K 1 43189U 18014K 18347.75220280 .00000531 00000-0 51739-4 0 9996 2 43189 97.7169 253.8046 0009567 271.0789 88.9337 14.96547540 45726 FMN 1 1 43192U 18015A 18347.84719623 .00002463 00000-0 10587-3 0 9996 2 43192 97.3768 113.3796 0015394 228.5104 131.4806 15.23509658 47867 Shaonian Xing 1 43199U 18015H 18346.94808308 .00001797 00000-0 76442-4 0 9994 2 43199 097.3562 111.9879 0015917 245.2132 114.7448 15.24206719047768 1KUNS-PF 1 43466U 98067NP 18347.81728710 .00009445 00000-0 12103-3 0 9992 2 43466 51.6379 198.2671 0001469 124.3009 235.8123 15.59927228 33694 UBAKUSAT 1 43467U 98067NQ 18347.82095604 .00006732 00000-0 92225-4 0 9993 2 43467 51.6374 199.0403 0003273 93.9781 266.1585 15.58696266 33698 Irazu 1 43468U 98067NR 18346.86195711 .00013935 00000-0 16952-3 0 9992 2 43468 51.6371 202.3859 0001494 128.5660 231.5468 15.60842233133544 EnduroSat One 1 43551U 98067NZ 18347.85493002 .00007785 00000-0 10888-3 0 9997 2 43551 51.6375 200.7544 0007071 159.8091 200.3182 15.57862538 23907 EQUISat 1 43552U 98067PA 18347.87150563 .00007280 00000-0 10376-3 0 9994 2 43552 51.6376 200.8671 0007277 159.6358 200.4925 15.57463182 23866 UiTMSat 1 1 43589U 98067PD 18347.85860316 .00007414 00000-0 10681-3 0 9994 2 43589 51.6374 201.5263 0006567 166.9391 193.1772 15.57142153 19593 Maya 1 1 43590U 98067PE 18347.85640429 .00007542 00000-0 10843-3 0 9999 2 43590 51.6373 201.5124 0006654 167.8006 192.3148 15.57167017 19527 Bhutan 1 1 43591U 98067PF 18347.01891710 .00008831 00000-0 12565-3 0 9994 2 43591 51.6371 205.6696 0006765 165.8184 194.2999 15.57196618 19392 SiriusSat 1 1 43595U 98067PG 18346.86355100 .00008208 00000-0 11948-3 0 9990 2 43595 51.6373 206.8771 0004623 122.2436 237.9005 15.56692883 18546 SiriusSat 2 1 43596U 98067PH 18346.93893731 .00008106 00000-0 11875-3 0 9992 2 43596 051.6382 206.6423 0005273 125.0875 235.0612 15.56537634018555 Tanusha-3 1 43597U 98067PJ 18346.85794732 .00009704 00000-0 13834-3 0 9997 2 43597 51.6362 206.8278 0004810 136.1073 224.0302 15.57014552 18546 SurfSat 1 43614U 18070B 18347.36000620 .00002574 00000-0 71994-4 0 9996 2 43614 93.0364 286.2159 0014523 315.7671 44.2420 15.36647964 13633 CP-7 DAVE 1 43615U 18070C 18346.90401955 .00002444 00000-0 68409-4 0 9995 2 43615 093.0364 286.0280 0014610 317.3913 042.6205 15.36632784013560 ELFIN-B 1 43616U 18070D 18347.80889473 .00003214 00000-0 89200-4 0 9999 2 43616 93.0333 286.3654 0015745 317.2523 42.7504 15.36854891 13705 ELFIN-A 1 43617U 18070E 18346.89547543 .00003763 00000-0 10436-3 0 9990 2 43617 093.0385 286.0576 0014774 317.4084 042.6022 15.36884657013569 STARS-Me Mother 1 43640U 98067PQ 18347.77400722 .00004500 00000-0 71622-4 0 9990 2 43640 51.6379 203.2122 0006577 117.9647 242.2011 15.55499116 10607 CubeBel 1 1 43666U 18083E 18347.80218257 .00001275 00000-0 67433-4 0 9993 2 43666 97.5353 8.4338 0016945 114.7769 1.0410 15.17183100 6947 Changshagaoxin 1 43669U 18083H 18347.86857444 .00000802 00000-0 44606-4 0 9991 2 43669 97.5217 8.3675 0012639 106.9204 253.3415 15.16460700 6912 Ten-Koh 1 43677U 18084G 18347.27595013 .00000749 00000-0 83134-4 0 9996 2 43677 97.8382 97.4390 0016441 175.8848 184.2570 14.90108634 6701 Diwata-2 1 43678U 18084H 18347.83713020 .00000151 00000-0 20714-4 0 9991 2 43678 97.8381 98.1043 0009498 193.4517 166.6431 14.91513827 6791 IRVINE 01 1 43693U 18088D 18347.43655233 .00001978 00000-0 88111-4 0 9992 2 43693 85.0368 81.6938 0020048 155.2418 204.9790 15.20560597 4906 MinXSS 2 1 43758U 18099A 18347.85632315 .00000142 00000-0 18207-4 0 9999 2 43758 97.7673 56.9184 0014838 226.7102 133.2882 14.95257815 1516 AO-95 1 43769U 18099M 18347.65958409 .00000134 00000-0 17670-4 0 9998 2 43769 97.7625 56.7074 0013335 231.5809 128.4214 14.94641516 1485 PWSat 2 1 43775U 18099T 18347.79215773 .00000045 00000-0 94618-5 0 9999 2 43775 97.7688 56.8547 0013774 224.3972 135.6145 14.94839263 1486 MOVE-II 1 43780U 18099Y 18347.79208705 .00000308 00000-0 33550-4 0 9991 2 43780 97.7660 56.8433 0012730 231.2418 128.7665 14.94852771 1488 SNUSat 2 1 43782U 18099AA 18347.79156191 .00000116 00000-0 15907-4 0 9997 2 43782 97.7675 56.8489 0012008 219.5790 140.4555 14.94930849 1490 ITASat 1 1 43786U 18099AE 18347.85786010 .00000085 00000-0 13085-4 0 9997 2 43786 97.7693 56.9195 0014319 227.5689 132.4321 14.95025984 1513 Unknown Sat 1 43787U 18099AF 18347.65703057 .00000301 00000-0 32748-4 0 9994 2 43787 97.7583 56.7093 0013441 226.4066 133.6040 14.95034803 1486 EAGLET 1 1 43790U 18099AJ 18347.65451755 -.00000108 00000-0 -44542-5 0 9996 2 43790 97.7683 56.7221 0012390 233.7563 126.2513 14.95417066 1174 ESEO 1 43792U 18099AL 18347.78806829 -.00000236 00000-0 -16016-4 0 9994 2 43792 97.7667 56.8545 0012302 230.1220 129.8919 14.95451486 1254 CSIM 1 43793U 18099AM 18347.78792265 .00000303 00000-0 32639-4 0 9995 2 43793 97.7613 56.8366 0012371 227.7078 132.3095 14.95480020 1223 RANGE A 1 43798U 18099AS 18347.78677587 -.00000111 00000-0 -47374-5 0 9991 2 43798 97.7670 56.8538 0011791 212.1975 147.8527 14.95653074 1481 JO-97 1 43803U 18099AX 18347.85718448 .00000048 00000-0 97170-5 0 9994 2 43803 97.7650 56.9104 0014307 228.5476 131.4516 14.95128488 1505 Suomi 100 1 43804U 18099AY 18347.58942969 .00000047 00000-0 95648-5 0 9999 2 43804 97.7649 56.6452 0014360 229.6337 130.3631 14.95136716 1479 Al Farabi 2 1 43805U 18099AZ 18347.85704151 .00000186 00000-0 22238-4 0 9997 2 43805 97.7648 56.9103 0014449 228.8107 131.1868 14.95151521 1516 /EX